Location: Ashbury Towers
(41.4733°N, 81.7217°W)
Time: 15:13:58
(UTC+00:00)

Daily predictions for brighter satellites

Satellite Brightness Start Highest point End
(mag) Time Altitude Azimuth Time Altitude Azimuth Time Altitude Azimuth
Cosmos 2333 Rocket 4.0 12:02:21 10° WNW 12:04:04 11° NW 12:05:47 10° NNW
Cosmos 2219 Rocket 3.9 12:02:17 10° WNW 12:04:12 12° NW 12:06:21 10° NNW
Cosmos 1626 Rocket 4.4 12:01:06 10° NNW 12:04:59 29° W 12:08:50 10° SSW
Cosmos 1300 2.6 12:01:44 10° SSW 12:05:31 76° W 12:09:20 10° N
Cosmos 2228 3.0 12:02:02 10° S 12:06:17 88° W 12:10:33 10° N
Cosmos 1125 Rocket 3.9 12:01:37 10° NNW 12:06:56 68° ENE 12:12:12 10° SSE
USA 238 DEB 3.7 12:01:14 10° SSW 12:07:46 86° SE 12:14:38 10° NE
USA 238 3.7 12:01:22 10° SSW 12:07:53 85° ESE 12:14:45 10° NE
Cosmos 372 Rocket 4.4 12:02:56 10° NNW 12:07:54 43° WSW 12:12:48 10° S
SL-19 R/B 4.5 12:04:08 10° N 12:07:59 45° WNW 12:11:19 10° SW
Envisat 3.6 12:06:10 10° N 12:10:41 33° WNW 12:15:12 10° SW
FengYun 1-2 T 4.4 12:06:24 10° NNE 12:12:06 85° ESE 12:17:46 10° SSW
NOAA 6 4.4 12:12:01 10° N 12:16:52 41° WNW 12:21:42 10° SW
H-2A R/B 2.9 12:15:04 10° N 12:19:22 46° WNW 12:23:39 10° SW
ATLAS CENTAUR R/B 1.3 12:15:49 10° SW 12:19:23 46° NW 12:22:56 10° NNE
Cosmos 2297 3.8 12:16:00 10° NNW 12:21:48 85° WSW 12:27:32 10° SSE
CORIOLIS 4.1 12:17:02 10° N 12:22:21 68° WNW 12:27:39 10° SSW
ATLAS 2AS CENTAUR R/B 4.3 22:47:08 10° WSW 22:54:14 35° NW 23:01:15 10° NNE
MOS 1 Rocket 4.3 22:53:20 10° NE 22:56:41 22° E 23:00:01 10° SE
COSMOS 2455 2.9 22:53:50 10° SSW 22:59:46 65° ESE 23:05:45 10° NE
Cosmos 1818 4.1 22:55:06 10° S 23:00:07 40° ESE 23:05:10 10° NE
Cosmos 1844 Rocket 3.3 22:56:13 10° S 23:01:19 36° ESE 23:06:26 10° NE
CZ-4C R/B 4.1 22:57:34 10° W 23:01:31 21° NNW 23:06:02 10° NNE
CZ-2D R/B 4.2 23:02:04 10° SE 23:05:21 27° ENE 23:08:39 10° NNE
ISS -3.7 23:04:41 10° SW 23:08:03 69° SE 23:11:21 10° ENE
H-2A R/B 3.2 23:05:29 10° S 23:09:24 57° W 23:13:31 10° NNW
Aureole 2 Rocket 2.4 23:10:18 10° S 23:13:08 43° ESE 23:16:06 10° NNE
Meteor 2-10 Rocket 3.8 23:08:19 10° N 23:13:39 49° ENE 23:18:42 10° SSE
COSMO-SKYMED 1 2.9 23:09:37 10° NNE 23:13:48 45° E 23:17:57 10° S
CSL-04 DEB 4.4 23:10:13 10° NNE 23:14:23 67° ESE 23:18:25 10° S
CZ-4B R/B 3.6 23:10:16 10° S 23:15:46 72° WSW 23:21:25 10° NNW
TELKOM 3 3.9 23:18:17 10° W 23:20:27 38° NNW 23:22:18 14° NE
Cosmos 1777 Rocket 4.2 23:17:17 10° SSW 23:22:33 76° WNW 23:27:51 10° NNE
Cosmos 1538 Rocket 4.0 23:17:50 10° NNW 23:22:57 62° ENE 23:28:04 10° SSE
Cosmos 1689 Rocket 3.4 23:25:19 17° ENE 23:26:09 19° E 23:28:17 10° SE
Lacrosse 5 2.4 23:22:43 10° NW 23:27:29 40° NE 23:31:50 12° ESE
ATLAS 5 CENTAUR R/B 3.6 23:25:24 10° W 23:28:29 20° NW 23:31:52 10° N
Okean-O 3.4 23:24:45 10° SE 23:28:35 30° ENE 23:32:27 10° N
Okean O Rocket 2.5 23:24:48 10° S 23:29:09 55° W 23:33:31 10° NNW
Cosmos 1455 2.8 23:27:05 10° N 23:30:35 34° ENE 23:34:05 10° SE
Helios 1A Rocket 4.0 23:28:08 10° ESE 23:31:24 23° ENE 23:34:42 10° NNE
Cosmos 1340 4.1 23:30:05 10° SE 23:32:34 17° E 23:32:34 17° E
ATLAS 3B R/B 4.5 23:27:20 10° NW 23:33:39 37° WSW 23:40:11 10° S
Aureole 3 3.4 23:33:22 10° N 23:36:24 32° ENE 23:39:09 10° SE
NOSS 2-1 (E) 4.4 23:34:20 10° SSE 23:36:52 19° ESE 23:37:25 19° ESE
BREEZE-M DEB (TANK) 4.1 23:34:34 10° W 23:37:03 26° SSW 23:40:25 10° SSE
Cosmos 1602 Rocket 4.4 23:35:07 10° SSE 23:38:50 28° E 23:41:52 14° NE
Cosmos 1703 3.9 23:38:54 10° SSE 23:42:23 32° E 23:44:38 18° NE
ERS-2 2.1 23:39:11 10° NNE 23:42:47 56° ESE 23:46:20 10° S
CZ-4B R/B 1.8 23:39:32 10° N 23:42:52 62° WNW 23:46:05 10° SSW
YAOGAN 1 3.0 23:38:57 10° SE 23:42:58 39° ENE 23:47:00 10° N
H-2A R/B 3.9 23:39:53 10° N 23:43:48 31° WNW 23:47:38 10° SW
Cosmos 1892 Rocket 4.2 23:39:50 10° SSW 23:44:05 56° W 23:48:22 10° N
Meteor 2-1 Rocket 4.1 23:43:58 10° N 23:49:29 64° ENE 23:54:56 10° SSE
Cosmos 2263 Rocket 4.4 23:47:30 10° W 23:51:45 21° NW 23:56:02 10° N
